H-2A R/B - Orbit

View from above orbital plane
View from above orbital plane
View from above satellite
View from above satellite

Ground track
Ground track

The orbit data is extracted from the following two-line orbital elements,

1 27601U 02056E   13168.82383074  .00000083  00000-0  46577-4 0  8334
2 27601 098.5067 254.4635 0071570 295.1093 213.3622 14.31153026548889
Epoch (UTC): 17 June 2013 19:46:18
Eccentricity: 0.0071570
inclination: 98.5067°
perigee height: 736 km
apogee height: 839 km
right ascension of ascending node: 254.4635°
argument of perigee: 295.1093°
revolutions per day: 14.31153026
mean anomaly at epoch: 213.3622°
orbit number at epoch: 54888

The dashed part of the orbit path shows where the satellite is in the earth's shadow,  

Developed and maintained by Chris Peat, Heavens-Above GmbH. Please read the updated FAQ before sending e-mail. Imprint. DLR